Skip Page Navigation
NASA JPL Caltech
NASA Logo - Jet Propulsion Laboratory + View the NASA Portal
+ Near-Earth Object (NEO) Program
Search JPL
JPL Home Earth Solar System Stars & Galaxies Technology
JPL Solar System Dynamics
BODIES ORBITS EPHEMERIDES TOOLS PHYSICAL DATA DISCOVERY FAQ SITE MAP
JPL Small-Body Database Browser
Search: [ help ]  
26225 (1997 YO14)
Classification: Main-belt Asteroid          SPK-ID: 2026225
Ephemeris | Orbit Diagram | Orbital Elements | Physical Parameters | Discovery Circumstances | Close-Approach Data ]

[ show orbit diagram ]
Orbital Elements at Epoch 2457000.5 (2014-Dec-09.0) TDB
Reference: JPL 8 (heliocentric ecliptic J2000)
 Element Value Uncertainty (1-sigma)   Units 
e .2326832860009978 7.5178e-08  
a 2.612365543364239 2.2432e-08 AU
q 2.004511744498466 1.9164e-07 AU
i 4.246704913998571 7.5486e-06 deg
node 311.0996549018034 9.9388e-05 deg
peri 31.64248059381855 0.00010036 deg
M 45.64016854573646 2.1415e-05 deg
tp 2456804.978695583819
(2014-May-27.47869558)
8.9895e-05 JED
period 1542.23071107393
4.22
1.9864e-05
5.438e-08
d
yr
n .2334281099546478 3.0066e-09 deg/d
Q 3.220219342230012 2.7651e-08 AU
  Orbit Determination Parameters
   # obs. used (total)      797  
   data-arc span      6146 days (16.83 yr)  
   first obs. used      1997-12-24  
   last obs. used      2014-10-22  
   planetary ephem.      DE431  
   SB-pert. ephem.      SB431-BIG16  
   condition code      0  
   fit RMS      .54487  
   data source      ORB  
   producer      Otto Matic  
   solution date      2014-Nov-10 13:48:39  

Additional Information
 Earth MOID = .998321 AU 
 T_jup = 3.366 
[ show covariance matrix ]

Ephemeris | Orbit Diagram | Orbital Elements | Physical Parameters | Discovery Circumstances | Close-Approach Data ]

Physical Parameter Table
Parameter Symbol Value Units Sigma Reference Notes
absolute magnitude H 13.9 mag n/a PDS3 (MPO 13927)  

26225 (1997 YO14)          Discovered 1997-Dec-24 by Beijing Schmidt CCD Asteroid Program at Xinglong (327)
Reference: 20010705/Numbers.arcLast Updated: 2004-04-19

[ show close-approach data ]
Alternate Designations
 1997 YO14 = 1998 YY10 
Ephemeris | Orbit Diagram | Orbital Elements | Physical Parameters | Discovery Circumstances | Close-Approach Data ]
ABOUT SSD CREDITS/AWARDS PRIVACY/COPYRIGHT GLOSSARY LINKS
FirstGov 2014-Dec-18 23:49 UT
(server date/time)  
NASA Home Page
Site Manager:   Donald K. Yeomans
Webmaster  Alan B. Chamberlin